Starlink 5652

operational
NORAD ID: 55334 Int'l Des: 2023-013 Owner: SPXS Country: US Constellation: starlink
LEOCIRCULAR

About Starlink 5652

Description loading...

Live Position

Loading 3D Globe...

Upcoming Passes

Altitude History

Altitude vs Time

uPlot chart will show altitude changes over time

Two-Line Element Set

1 55334U 23013D 26033.31316458 .00000020 00000-0 16541-4 0 9997
2 55334 43.0035 132.8231 0001355 266.0187 94.0501 15.02537270166386
Epoch: Feb 2, 2026 • Age: 18 hours

Current Status

Altitude 559.4 km
Velocity 7.58 km/s
Sub-Earth Point -4.23°S, 151.56°E
Launch Date Jan 26, 2023
Age 3 years
Type internet

Technical Details

Classification Payload
Mass 305.00 kg
Dry Mass 290.00 kg
Total Mass 305.00 kg
Length 0.20 m
Diameter 2.80 m
Span 9.00 m
Shape Box + pan
Manufacturer SPXS
Bus Type Starlink
Phase Status In Orbit
Owner/State SPXS/US

Large Constellations

Loading constellations...